When you browse on this site, cookies collect data to enhance your experience and personalize the content and advertising you see.
Visit our Privacy Policy to learn more. By continuing to use the site, you agree to this use of cookies and data.
  • In United Kingdom
  • List of Countries
  • For 7 days
  • Water Temperature
  • Satellite Maps
  • Weather Map
  • Weather Widgets
  • user-avatar
    Login

    Hourly Weather Peches'ky

    Today, 19 June, Wednesday

    Time Temperature Precipitation Wind Pressure Humidity
    00:00 +19°C° 0 mm 1 mps 734 mmHg 92%
    01:00 +19°C° 0 mm 1 mps 734 mmHg 93%
    02:00 +18°C° 0 mm 1 mps 734 mmHg 93%
    03:00 +17°C° 0 mm 2 mps 734 mmHg 94%
    04:00 +17°C° 0 mm 2 mps 734 mmHg 95%
    05:00 +17°C° 0 mm 2 mps 734 mmHg 96%
    06:00 +19°C° 0 mm 2 mps 734 mmHg 92%
    07:00 +20°C° 0 mm 2 mps 734 mmHg 87%
    08:00 +22°C° 0 mm 3 mps 734 mmHg 83%
    09:00 +24°C° 0.1 mm 3 mps 734 mmHg 80%
    10:00 +25°C° 0.1 mm 3 mps 734 mmHg 76%
    11:00 +26°C° 0.1 mm 3 mps 734 mmHg 72%
    12:00 +26°C° 0.7 mm 3 mps 734 mmHg 73%
    13:00 +26°C° 0.7 mm 3 mps 733 mmHg 74%
    14:00 +26°C° 0.7 mm 3 mps 733 mmHg 74%
    15:00 +26°C° 1.3 mm 3 mps 733 mmHg 76%
    16:00 +26°C° 1.3 mm 3 mps 732 mmHg 78%
    17:00 +25°C° 1.3 mm 3 mps 732 mmHg 80%
    18:00 +24°C° 1.1 mm 3 mps 732 mmHg 83%
    19:00 +22°C° 1.1 mm 3 mps 732 mmHg 86%
    20:00 +21°C° 1.1 mm 3 mps 732 mmHg 89%
    21:00 +21°C° 0.5 mm 3 mps 732 mmHg 90%
    22:00 +20°C° 0.5 mm 3 mps 732 mmHg 92%
    23:00 +19°C° 0.5 mm 3 mps 732 mmHg 93%

    Tomorrow, 20 June, Thursday

    Time Temperature Precipitation Wind Pressure Humidity
    00:00 +19°C° 0 mm 3 mps 732 mmHg 94%
    01:00 +19°C° 0 mm 3 mps 732 mmHg 94%
    02:00 +18°C° 0 mm 3 mps 732 mmHg 95%
    03:00 +18°C° 0.3 mm 3 mps 732 mmHg 95%
    04:00 +18°C° 0.3 mm 2 mps 732 mmHg 95%
    05:00 +18°C° 0.3 mm 2 mps 731 mmHg 96%
    06:00 +19°C° 0 mm 2 mps 732 mmHg 93%
    07:00 +21°C° 0 mm 3 mps 732 mmHg 90%
    08:00 +22°C° 0 mm 3 mps 732 mmHg 87%
    09:00 +24°C° 0 mm 3 mps 732 mmHg 82%
    10:00 +26°C° 0 mm 3 mps 732 mmHg 77%
    11:00 +27°C° 0 mm 3 mps 732 mmHg 72%
    12:00 +27°C° 0.1 mm 3 mps 732 mmHg 71%
    13:00 +27°C° 0.1 mm 3 mps 731 mmHg 70%
    14:00 +28°C° 0.1 mm 3 mps 731 mmHg 68%
    15:00 +28°C° 0.2 mm 3 mps 731 mmHg 70%
    16:00 +28°C° 0.2 mm 3 mps 731 mmHg 71%
    17:00 +27°C° 0.2 mm 3 mps 731 mmHg 72%
    18:00 +26°C° 0.8 mm 3 mps 731 mmHg 76%
    19:00 +25°C° 0.8 mm 2 mps 731 mmHg 81%
    20:00 +23°C° 0.8 mm 2 mps 731 mmHg 85%
    21:00 +23°C° 0.1 mm 2 mps 731 mmHg 88%
    22:00 +21°C° 0.1 mm 2 mps 731 mmHg 90%
    23:00 +20°C° 0.1 mm 2 mps 731 mmHg 92%

    Day after tomorrow, 21 June, Friday

    Time Temperature Precipitation Wind Pressure Humidity
    00:00 +20°C° 0 mm 2 mps 731 mmHg 93%
    01:00 +19°C° 0 mm 2 mps 731 mmHg 93%
    02:00 +19°C° 0 mm 2 mps 731 mmHg 94%
    03:00 +19°C° 0 mm 2 mps 731 mmHg 94%
    04:00 +19°C° 0 mm 2 mps 731 mmHg 93%
    05:00 +19°C° 0 mm 2 mps 731 mmHg 93%
    06:00 +21°C° 0.1 mm 2 mps 731 mmHg 90%
    07:00 +22°C° 0.1 mm 3 mps 732 mmHg 87%
    08:00 +25°C° 0.1 mm 3 mps 732 mmHg 84%
    09:00 +26°C° 0.5 mm 3 mps 732 mmHg 79%
    10:00 +27°C° 0.5 mm 3 mps 732 mmHg 75%
    11:00 +28°C° 0.5 mm 3 mps 732 mmHg 70%
    12:00 +29°C° 0 mm 3 mps 732 mmHg 68%
    13:00 +29°C° 0 mm 3 mps 732 mmHg 67%
    14:00 +29°C° 0 mm 3 mps 732 mmHg 66%
    15:00 +29°C° 0.2 mm 3 mps 731 mmHg 67%
    16:00 +29°C° 0.2 mm 2 mps 731 mmHg 68%
    17:00 +29°C° 0.2 mm 2 mps 731 mmHg 70%
    18:00 +27°C° 0.3 mm 2 mps 731 mmHg 75%
    19:00 +26°C° 0.3 mm 2 mps 731 mmHg 80%
    20:00 +24°C° 0.3 mm 2 mps 731 mmHg 85%
    21:00 +23°C° 0.3 mm 2 mps 731 mmHg 87%
    22:00 +21°C° 0.3 mm 2 mps 731 mmHg 89%
    23:00 +21°C° 0.3 mm 3 mps 731 mmHg 91%

    22 June, Saturday

    Time Temperature Precipitation Wind Pressure Humidity
    00:00 +20°C° 0.8 mm 3 mps 731 mmHg 92%
    01:00 +20°C° 0.8 mm 3 mps 731 mmHg 93%
    02:00 +20°C° 0.8 mm 3 mps 731 mmHg 94%
    03:00 +20°C° 0.1 mm 3 mps 731 mmHg 93%
    04:00 +20°C° 0.1 mm 3 mps 731 mmHg 92%
    05:00 +20°C° 0.1 mm 3 mps 731 mmHg 90%
    06:00 +21°C° 0.1 mm 3 mps 732 mmHg 88%
    07:00 +22°C° 0.1 mm 3 mps 732 mmHg 86%
    08:00 +25°C° 0.1 mm 3 mps 732 mmHg 84%
    09:00 +26°C° 2 mm 3 mps 732 mmHg 80%
    10:00 +27°C° 2 mm 3 mps 732 mmHg 76%
    11:00 +28°C° 2 mm 3 mps 732 mmHg 73%
    12:00 +28°C° 1.4 mm 3 mps 732 mmHg 73%
    13:00 +28°C° 1.4 mm 3 mps 732 mmHg 73%
    14:00 +28°C° 1.4 mm 4 mps 732 mmHg 73%
    15:00 +28°C° 0.8 mm 3 mps 731 mmHg 76%
    16:00 +27°C° 0.8 mm 3 mps 731 mmHg 78%
    17:00 +27°C° 0.8 mm 3 mps 731 mmHg 81%
    18:00 +26°C° 0.7 mm 3 mps 731 mmHg 83%
    19:00 +24°C° 0.7 mm 3 mps 731 mmHg 84%
    20:00 +23°C° 0.7 mm 2 mps 731 mmHg 86%
    21:00 +23°C° 0 mm 2 mps 731 mmHg 86%
    22:00 +21°C° 0 mm 2 mps 731 mmHg 86%
    23:00 +21°C° 0 mm 2 mps 731 mmHg 87%

    23 June, Sunday

    Time Temperature Precipitation Wind Pressure Humidity
    00:00 +20°C° 0.2 mm 2 mps 731 mmHg 88%
    01:00 +20°C° 0.2 mm 3 mps 731 mmHg 90%
    02:00 +20°C° 0.2 mm 3 mps 731 mmHg 91%
    03:00 +20°C° 0 mm 3 mps 731 mmHg 92%
    04:00 +19°C° 0 mm 3 mps 731 mmHg 93%
    05:00 +19°C° 0 mm 3 mps 731 mmHg 94%
    06:00 +20°C° 0 mm 4 mps 731 mmHg 90%
    07:00 +22°C° 0 mm 4 mps 731 mmHg 87%
    08:00 +23°C° 0 mm 5 mps 732 mmHg 83%
    09:00 +25°C° 1 mm 5 mps 732 mmHg 81%
    10:00 +26°C° 1 mm 5 mps 732 mmHg 78%
    11:00 +27°C° 1 mm 6 mps 732 mmHg 75%
    12:00 +27°C° 0.5 mm 5 mps 731 mmHg 75%
    13:00 +26°C° 0.5 mm 5 mps 731 mmHg 76%
    14:00 +26°C° 0.5 mm 5 mps 731 mmHg 76%
    15:00 +26°C° 0.1 mm 5 mps 731 mmHg 77%
    16:00 +26°C° 0.1 mm 5 mps 731 mmHg 78%
    17:00 +25°C° 0.1 mm 5 mps 730 mmHg 78%
    18:00 +25°C° 0.3 mm 4 mps 730 mmHg 80%
    19:00 +23°C° 0.3 mm 4 mps 730 mmHg 82%
    20:00 +22°C° 0.3 mm 3 mps 730 mmHg 83%
    21:00 +21°C° 1.9 mm 3 mps 731 mmHg 85%
    22:00 +20°C° 1.9 mm 3 mps 731 mmHg 86%
    23:00 +19°C° 1.9 mm 2 mps 731 mmHg 87%

    24 June, Monday

    Time Temperature Precipitation Wind Pressure Humidity
    00:00 +19°C° 0.3 mm 3 mps 731 mmHg 89%
    01:00 +18°C° 0.3 mm 3 mps 731 mmHg 91%
    02:00 +18°C° 0.3 mm 3 mps 731 mmHg 94%
    03:00 +18°C° 0.5 mm 3 mps 731 mmHg 95%
    04:00 +18°C° 0.5 mm 3 mps 731 mmHg 96%
    05:00 +17°C° 0.5 mm 3 mps 731 mmHg 97%
    06:00 +17°C° 0.5 mm 3 mps 732 mmHg 96%
    07:00 +17°C° 0.5 mm 4 mps 732 mmHg 96%
    08:00 +17°C° 0.5 mm 4 mps 732 mmHg 95%
    09:00 +18°C° 0.1 mm 3 mps 732 mmHg 92%
    10:00 +19°C° 0.1 mm 3 mps 733 mmHg 89%
    11:00 +20°C° 0.1 mm 3 mps 733 mmHg 86%
    12:00 +21°C° 0 mm 3 mps 733 mmHg 83%
    13:00 +22°C° 0 mm 3 mps 733 mmHg 80%
    14:00 +22°C° 0 mm 3 mps 733 mmHg 77%
    15:00 +22°C° 0.2 mm 4 mps 733 mmHg 79%
    16:00 +22°C° 0.2 mm 4 mps 733 mmHg 81%
    17:00 +22°C° 0.2 mm 5 mps 733 mmHg 84%
    18:00 +21°C° 0.2 mm 5 mps 734 mmHg 87%
    19:00 +19°C° 0.2 mm 5 mps 734 mmHg 90%
    20:00 +17°C° 0.2 mm 5 mps 734 mmHg 93%
    21:00 +17°C° 0 mm 5 mps 734 mmHg 93%
    22:00 +17°C° 0 mm 5 mps 734 mmHg 94%
    23:00 +16°C° 0 mm 5 mps 735 mmHg 94%
    Show more